太空蜂星座-115星 (SPACEBEE-115)

导读

SPACEBEE-115(太空蜂-115)是美国Swarm Technologies(蜂群科技)公司研发运营的小型皮卫星,属于SpaceBEE物联网卫星星座组网卫星之一,2022年3月15日发射升空。该星为0.25U立方星规格,运行于近地轨道,主要用于提供全球低带宽物联网数据通信与中继服务,支撑资产追踪、遥感遥测等应用,已于2024年3月陨落。

Basic Information
目录编号:
52016
目录名称:
SPACEBEE-115
国际标识:
2022-026J
轨道中心:
EARTH
卫星名称:
太空蜂星座-115星
卫星全名:
太空蜂星座-115星 (SPACEBEE-115)
卫星状态:
已陨落 最后检测时间 2024-03-14
发射日期:
2022-03-15 UTC
国别 :
美国 (US)
星等 :
--
Orbit Information
数据来源 国际轨道数据
星历时间: 2024-03-11T15:41:01+0800
轨道信息已过期855天
半长轴: 6542.349km
偏心率: 0.0009682
轨道倾角: 97.460°
近地点辐角 221.933°
升交点赤经 91.002°
平近点角 138.123°
近地点: 157.879km
远地点: 170.549km
周期: 87.773分钟
每日圈数: 16.405982
Detailed Information
平衡模式:
三轴稳定
覆盖范围:
全球
运营商:
蜂群科技公司
运营商所在国:
美国
制造商(研发单位):
蜂群科技公司
制造商所在国:
美国
使用方式:
暂无
Satellite Introduction
太空蜜蜂(SpaceBEE)皮卫星建立在0.25U立方体卫星平台上,是私营公司蜂群科技公司(Swarm Technologies)开发的卫星星座的一部分。该星座计划由大约150颗皮卫星组成,提供双向卫星通信和数据中继。该卫星已陨落。